Zurück zum Katalog

FENGYUN 1C DEB

AktivPO
NORAD 29800·DEBRIS·🇨🇳 China

Gestartet May 10, 1999 von Taiyuan Satellite Launch Center

Loading…

Nächste Überflüge (nächste 24 Stunden)

TLE

AktuellSource: Space-Track

Epoche: Sep 12, 2026, 23:48 UTC

1 29800U 99025CS  26255.99195334  .00001638  00000-0  10592-2 0  9994
2 29800  98.2806 256.6279 0131133 173.8552 212.3617 13.99917633994122

Verfolge FENGYUN 1C DEB in Echtzeit mit AllMySat

Download on the App Store